Home   Weather   Saskatoon   Past weeks
Flag for Canada

Past Weather in Saskatoon, Saskatchewan, Canada — Yesterday and Last 2 Weeks

Now
34 °F

Passing clouds.


Feels Like: 30 °F
Forecast: 45 / 24 °F
Wind: 5 mph from Northeast

Location: Saskatoon Weather Station

Current Time: Oct 21, 2019 at 7:31:18 pm

Latest Report: Oct 21, 2019 at 7:00 pm


Visibility: 15 mi

Pressure: 30.11 "Hg

Humidity: 75%

Dew Point: 27 °F

Location of SaskatoonLocation

Past Weather in Saskatoon — Graph

°F

Saskatoon Temperature Yesterday

Maximum temperature yesterday: 43 °F (at 2:00 pm)
Minimum temperature yesterday: 23 °F (at 3:00 am)
Average temperature yesterday: 34 °F

High & Low Weather Summary for the Past Weeks

 TemperatureHumidityPressure
High66 °F (Oct 7, 3:00 pm)100% (Oct 14, 11:55 am)30.53 "Hg (Oct 14, 11:55 am)
Low12 °F (Oct 10, 3:00 am)24% (Oct 7, 4:00 pm)29.30 "Hg (Oct 8, 12:00 am)
Average35 °F70%29.91 "Hg
* Reported Oct 6 6:00 pm — Oct 21 6:00 pm, Saskatoon. Weather by CustomWeather, © 2019

Note: Actual official high and low records may vary slightly from our data, if they occured in-between our weather recording intervals... More about our weather records

Advertising

Saskatoon Weather History for the Previous 24 Hours

Scroll right to see more
 ConditionsComfort  
Time TempWeatherWind HumidityBarometerVisibility
6:00 pm
Mon, Oct 21
36 °FPassing clouds.6 mph70%30.10 "Hg15 mi
5:00 pm43 °FPassing clouds.5 mph57%30.07 "Hg15 mi
4:00 pm45 °FPassing clouds.7 mph53%30.06 "Hg15 mi
3:00 pm45 °FScattered clouds.7 mph53%30.05 "Hg15 mi
2:00 pm45 °FPassing clouds.5 mph57%30.05 "Hg15 mi
1:00 pm43 °FScattered clouds.3 mph66%30.06 "Hg15 mi
12:00 pm41 °FPassing clouds.3 mph70%30.06 "Hg15 mi
11:00 am37 °FPassing clouds.6 mph87%30.07 "Hg15 mi
10:00 am30 °FPassing clouds.No wind100%30.06 "Hg10 mi
9:25 am25 °FIce fog.2 mph100%30.06 "Hg3 mi
9:08 am23 °FIce fog.No wind93%30.07 "Hg1 mi
8:37 am19 °FIce fog.2 mph100%30.06 "Hg0 mi
8:00 am18 °FScattered clouds.3 mph100%30.05 "Hg12 mi
7:00 am19 °FPassing clouds.2 mph93%30.03 "Hg15 mi
6:00 am21 °FLight fog.3 mph100%30.01 "Hg15 mi
5:25 am23 °FLight fog.No wind93%30.00 "Hg10 mi
5:00 am25 °FLight fog.No wind93%29.99 "Hg15 mi
4:00 am28 °FLight fog.3 mph100%29.97 "Hg15 mi
3:00 am30 °FPassing clouds.2 mph86%29.96 "Hg15 mi
2:00 am30 °FPassing clouds.5 mph86%29.96 "Hg15 mi
1:00 am32 °FPassing clouds.2 mph87%29.96 "Hg15 mi
12:00 am36 °FPartly cloudy.5 mph81%29.95 "Hg15 mi
11:00 pm
Sun, Oct 20
36 °FOvercast.6 mph81%29.94 "Hg15 mi
10:00 pm36 °FMostly cloudy.2 mph87%29.94 "Hg15 mi
9:00 pm37 °FOvercast.6 mph75%29.93 "Hg15 mi
8:00 pm37 °FOvercast.5 mph75%29.94 "Hg15 mi
7:00 pm37 °FPassing clouds.5 mph75%29.94 "Hg15 mi
Weather by CustomWeather, © 2019

See weather overview